TimePDT,TemperatureF,Dew PointF,Humidity,Sea Level PressureIn,VisibilityMPH,Wind Direction,Wind SpeedMPH,Gust SpeedMPH,PrecipitationIn,Events,Conditions,WindDirDegrees,DateUTC
12:56 AM,61.0,39.9,46,29.90,10.0,SSE,6.9,-,N/A,,Clear,160,2013-08-20 07:56:00
1:56 AM,68.0,39.0,35,29.90,10.0,SSE,13.8,-,N/A,,Clear,160,2013-08-20 08:56:00
2:56 AM,71.1,42.1,35,29.89,10.0,SSW,5.8,-,N/A,,Partly Cloudy,200,2013-08-20 09:56:00
3:56 AM,66.0,42.1,42,29.89,10.0,WNW,4.6,-,N/A,,Clear,290,2013-08-20 10:56:00
4:56 AM,64.0,39.9,41,29.90,10.0,Calm,Calm,-,N/A,,Clear,0,2013-08-20 11:56:00
5:56 AM,63.0,42.1,46,29.90,10.0,East,4.6,-,N/A,,Clear,90,2013-08-20 12:56:00
6:56 AM,64.0,45.0,50,29.93,10.0,Calm,Calm,-,N/A,,Clear,0,2013-08-20 13:56:00
7:56 AM,72.0,44.1,37,29.92,10.0,Calm,Calm,-,N/A,,Clear,0,2013-08-20 14:56:00
8:56 AM,75.9,45.0,33,29.94,10.0,East,4.6,-,N/A,,Clear,80,2013-08-20 15:56:00
9:56 AM,80.1,46.9,31,29.94,10.0,SE,4.6,-,N/A,,Clear,130,2013-08-20 16:56:00
10:56 AM,84.9,45.0,25,29.93,10.0,SSE,3.5,-,N/A,,Clear,150,2013-08-20 17:56:00
11:56 AM,88.0,43.0,21,29.91,10.0,Variable,4.6,-,N/A,,Clear,0,2013-08-20 18:56:00
12:56 PM,90.0,42.1,19,29.88,10.0,Calm,Calm,-,N/A,,Clear,0,2013-08-20 19:56:00
1:56 PM,93.9,42.1,17,29.84,10.0,NW,8.1,-,N/A,,Clear,310,2013-08-20 20:56:00
2:56 PM,95.0,41.0,15,29.81,10.0,Calm,Calm,-,N/A,,Clear,0,2013-08-20 21:56:00
3:56 PM,91.9,39.9,16,29.80,10.0,SSW,4.6,-,N/A,,Partly Cloudy,200,2013-08-20 22:56:00
4:16 PM,91.4,41.0,17,29.97,10.0,NNW,9.2,-,N/A,Thunderstorm,Thunderstorm,330,2013-08-20 23:16:00
4:49 PM,82.4,46.4,28,29.97,10.0,SE,12.7,23.0,0.00,Rain,Light Rain,140,2013-08-20 23:49:00
4:56 PM,80.1,51.1,36,29.83,10.0,SSE,17.3,24.2,0.00,Rain,Light Rain,160,2013-08-20 23:56:00
5:23 PM,82.4,48.2,30,29.97,10.0,East,9.2,-,0.00,Thunderstorm,Thunderstorm,90,2013-08-21 00:23:00
5:39 PM,82.4,48.2,30,29.97,10.0,Variable,5.8,-,0.00,,Mostly Cloudy,0,2013-08-21 00:39:00
5:56 PM,82.9,48.0,29,29.83,10.0,SE,11.5,16.1,0.00,,Partly Cloudy,140,2013-08-21 00:56:00
6:21 PM,82.4,48.2,30,30.00,9.0,Calm,Calm,-,0.00,Rain-Thunderstorm,Light Thunderstorms and Rain,0,2013-08-21 01:21:00
6:56 PM,75.9,53.1,45,29.85,10.0,SE,11.5,-,0.02,Thunderstorm,Thunderstorm,130,2013-08-21 01:56:00
7:40 PM,75.2,51.8,44,29.98,10.0,South,13.8,19.6,N/A,,Scattered Clouds,170,2013-08-21 02:40:00
7:56 PM,75.9,50.0,40,29.86,10.0,SSE,13.8,-,N/A,,Partly Cloudy,160,2013-08-21 02:56:00
8:56 PM,75.0,50.0,41,29.90,10.0,Variable,4.6,20.7,N/A,,Scattered Clouds,0,2013-08-21 03:56:00
9:20 PM,71.6,51.8,50,30.05,10.0,SSE,9.2,-,N/A,Thunderstorm,Thunderstorm,150,2013-08-21 04:20:00
9:35 PM,71.6,51.8,50,30.05,10.0,South,12.7,-,N/A,,Clear,180,2013-08-21 04:35:00
9:56 PM,72.0,50.0,46,29.90,10.0,South,17.3,23.0,N/A,,Clear,180,2013-08-21 04:56:00
10:34 PM,75.2,46.4,36,30.06,10.0,South,20.7,26.5,N/A,Thunderstorm,Thunderstorm,180,2013-08-21 05:34:00
10:56 PM,73.9,48.0,40,29.90,10.0,South,19.6,25.3,N/A,Thunderstorm,Thunderstorm,180,2013-08-21 05:56:00
11:06 PM,75.2,48.2,38,30.07,10.0,SSE,18.4,-,N/A,,Overcast,160,2013-08-21 06:06:00
11:56 PM,70.0,52.0,53,29.99,2.0,SSE,11.5,28.8,N/A,,Haze,160,2013-08-21 06:56:00